Theta_e
307 308 308 308 309 308 307 308 309 310 313 317 316 313 311 313 313 314 314 314 314 310 306 307 307 307 309 309 309 310 310 311 311 311 310 310 309 309 308 307 308 307 307 307 308 307 307 307 307 309 312 317 319 319 319 320 321 321 321 322 322 322 322 321 321 321 320 318 318 319 319 319 319 319 319 319 319 318 318 318 318 318 318 317 317 317 318
310 311 310 310 310 310 309 308 308 307 309 311 311 309 308 310 312 312 312 312 310 306 305 306 305 306 307 308 309 309 310 310 310 310 309 309 308 308 307 307 307 306 306 307 307 306 306 305 305 305 307 311 316 319 320 319 320 320 320 321 321 321 321 321 321 321 320 320 319 319 319 319 319 319 319 319 318 318 318 317 318 319 318 318 318 317 317
312 312 313 313 313 312 311 310 311 311 311 311 310 309 309 310 310 309 310 311 308 304 303 303 304 305 306 307 308 308 308 309 309 308 308 307 307 307 306 306 306 306 307 308 307 307 306 305 305 304 304 305 309 313 317 319 320 320 320 320 320 320 320 320 320 320 320 320 319 319 319 319 319 319 319 319 319 318 318 318 318 319 318 318 318 317 317
311 310 311 313 314 312 311 312 314 315 315 313 310 306 306 309 310 310 312 312 307 303 302 302 303 303 304 305 305 305 305 305 305 305 304 304 304 304 305 306 306 306 306 307 307 307 306 305 304 304 304 304 304 306 309 313 315 317 319 320 320 320 320 320 320 319 319 318 318 318 318 319 319 319 319 319 319 319 319 319 319 319 318 318 318 318 318
310 308 309 312 313 313 312 312 309 309 309 308 307 305 303 304 307 310 312 309 305 303 302 302 302 301 301 301 301 302 302 302 302 301 301 301 301 301 303 304 305 306 306 306 306 305 305 304 303 303 303 304 304 304 305 306 307 309 312 313 315 316 317 318 319 319 319 319 318 317 318 318 319 318 318 318 318 319 319 319 319 319 319 319 319 319 318
309 306 308 311 312 313 311 305 303 305 305 305 306 305 302 302 303 305 306 304 302 301 301 301 300 299 299 299 299 299 300 300 300 300 300 300 300 300 301 302 303 306 306 305 304 303 302 302 302 303 303 303 303 304 305 305 305 305 306 307 308 308 309 312 314 314 314 315 316 316 317 319 319 319 318 318 317 317 317 318 318 317 316 316 317 318 318
307 306 308 311 312 310 306 302 302 303 303 303 303 302 300 301 302 303 302 301 300 300 299 298 298 298 297 298 297 298 298 299 300 300 299 299 299 300 300 300 302 303 304 304 303 301 300 300 301 302 302 302 303 304 304 305 305 305 306 306 306 305 306 307 307 307 307 308 309 310 313 317 318 318 316 314 314 314 313 314 314 313 313 314 315 316 316
306 306 308 310 309 305 302 302 302 302 303 303 304 303 301 300 301 302 301 300 299 298 298 298 298 297 297 298 297 297 297 298 299 300 299 299 299 299 299 300 301 301 300 301 301 300 299 299 299 300 300 300 301 302 303 304 304 304 305 306 305 305 305 306 306 306 305 306 306 307 308 310 312 313 312 311 310 310 309 310 310 310 310 310 310 311 311
305 307 306 305 305 305 304 303 302 302 303 303 304 304 301 298 299 300 300 300 299 299 298 298 298 298 299 299 298 297 297 297 297 298 298 298 298 298 299 299 300 299 299 299 299 298 299 299 299 299 299 299 299 300 301 302 302 303 304 305 305 305 305 305 305 305 306 306 306 306 306 307 308 309 310 309 308 307 307 307 307 307 306 306 306 305 305
304 307 307 305 307 308 306 303 302 301 301 300 301 303 301 298 297 298 300 300 300 300 300 299 299 300 301 300 298 297 297 297 297 298 298 298 298 298 298 298 299 298 298 298 299 298 299 299 299 298 298 299 299 300 300 300 300 301 302 302 303 304 305 305 305 305 305 305 306 306 307 306 307 308 308 307 307 306 306 305 304 304 304 304 304 303 303
304 308 309 308 309 307 303 301 301 300 299 299 302 304 303 299 296 297 299 299 299 299 300 299 300 303 303 301 298 297 296 297 297 298 298 298 298 297 297 297 298 297 297 298 298 298 298 299 298 298 298 299 299 300 299 299 299 300 301 300 301 302 304 305 305 305 305 305 305 306 306 306 306 306 306 306 306 305 304 304 303 303 303 304 305 304 304
304 307 308 306 305 303 301 300 300 299 298 299 304 307 304 298 296 297 298 298 298 298 299 299 300 301 301 300 297 296 296 297 297 297 297 297 297 297 297 297 296 296 297 297 297 297 298 298 297 298 298 298 299 300 300 299 300 301 300 299 299 300 301 302 303 304 305 305 305 306 306 306 305 305 305 305 305 305 304 304 305 304 304 305 306 305 305
302 305 307 304 303 301 300 300 299 297 298 302 305 305 301 297 297 297 297 298 298 298 299 299 299 298 298 297 296 296 296 297 297 296 296 296 296 296 296 295 295 296 296 296 296 297 297 297 297 297 297 298 299 299 299 299 300 300 299 299 299 299 300 300 301 302 302 303 304 305 306 306 306 306 305 305 305 305 305 305 305 305 305 305 306 306 305
300 302 304 304 303 300 298 298 298 298 302 305 303 299 297 297 297 297 297 298 298 298 298 298 298 297 296 296 296 296 295 296 296 296 295 295 295 295 294 294 294 295 295 295 295 296 296 296 297 296 296 297 298 299 299 300 300 299 298 298 299 299 299 300 300 300 301 301 302 303 304 305 306 306 306 306 306 305 305 306 306 306 306 306 306 307 306
300 301 303 305 303 300 297 299 300 300 302 302 298 296 297 297 297 297 297 297 297 298 298 297 297 297 297 296 296 295 295 295 295 295 294 294 294 294 294 294 293 293 294 294 294 294 294 294 295 296 296 297 297 298 299 299 299 298 298 298 298 298 298 299 299 299 300 300 301 301 303 304 305 306 306 306 306 306 306 306 306 306 306 306 307 307 306
301 303 303 302 300 298 297 299 300 299 299 298 297 298 298 297 297 298 298 297 296 297 298 297 297 297 296 295 294 294 294 294 294 294 294 293 293 293 292 292 292 292 292 292 292 292 292 293 293 294 295 295 296 297 298 298 298 298 298 298 298 298 298 298 299 299 299 300 300 301 301 302 303 304 305 306 306 306 306 305 305 305 306 307 307 307 306
300 301 300 298 298 298 298 299 299 298 298 298 299 299 298 297 298 298 297 297 296 296 296 297 296 295 294 293 292 292 292 292 292 293 292 292 292 292 291 291 291 291 291 291 291 291 291 292 292 292 293 294 294 295 296 296 296 296 297 297 297 298 298 298 298 298 298 299 300 300 301 301 302 303 304 305 305 306 305 305 305 305 306 307 307 306 306
298 299 298 297 298 298 297 298 298 298 298 298 299 299 298 296 296 296 296 296 295 294 295 295 294 293 292 292 291 291 291 291 292 292 291 291 291 291 291 291 290 290 290 290 290 291 291 291 291 291 291 292 293 294 294 294 295 295 295 296 296 297 298 298 298 298 298 298 299 299 300 301 301 302 303 304 304 305 305 305 305 306 306 306 306 305 305
298 299 299 297 297 297 297 297 297 297 297 297 297 298 297 295 295 295 295 295 294 294 293 293 293 292 291 291 291 291 291 291 291 291 291 291 290 290 290 290 290 290 290 290 290 290 291 290 290 290 291 291 291 292 292 293 293 294 294 294 295 296 297 298 298 299 299 298 298 298 299 300 301 301 302 303 304 304 304 305 305 306 305 305 305 305 305
297 298 298 296 296 296 296 296 297 297 297 296 295 295 295 295 295 294 294 294 294 293 292 292 292 292 291 291 291 290 291 291 291 291 290 290 290 290 290 290 290 290 290 290 290 290 290 291 290 290 290 291 291 291 291 291 291 292 293 293 294 295 296 297 298 298 299 299 298 298 299 299 300 301 301 302 303 304 305 304 304 305 304 304 304 305 305
297 297 297 296 296 297 296 296 297 296 296 296 295 294 294 294 294 293 293 293 293 292 292 292 291 291 291 291 290 290 290 291 291 290 290 290 290 290 290 290 290 290 290 291 291 291 291 291 291 291 291 291 291 291 291 291 291 291 292 292 293 294 295 296 297 297 298 298 299 299 299 299 300 300 301 301 302 303 304 304 304 303 303 304 304 304 304
298 297 298 297 297 297 297 297 296 296 295 295 295 294 294 294 294 293 293 292 292 292 292 291 291 291 291 291 290 290 290 290 290 290 290 290 290 290 290 290 291 291 291 291 291 292 292 292 292 292 292 292 292 292 292 292 291 291 291 292 292 293 294 295 296 297 297 298 299 299 299 299 300 300 300 301 301 302 302 303 303 303 304 303 303 303 304
297 297 298 297 297 297 297 297 296 295 295 295 296 295 295 294 294 293 293 292 292 292 291 291 291 291 290 290 290 290 290 290 289 290 290 290 290 290 290 291 291 291 292 291 292 292 292 292 292 292 293 293 293 293 293 293 292 292 292 292 292 292 293 294 295 295 297 298 298 299 299 300 300 300 300 300 300 300 301 301 301 302 303 303 303 303 303
297 296 296 297 298 297 296 296 296 295 295 296 295 294 294 294 293 293 293 292 292 291 291 291 291 291 291 290 290 290 290 290 289 290 290 290 290 290 291 291 291 291 291 291 292 292 292 292 292 293 293 293 293 293 293 293 292 292 292 291 292 292 293 293 293 294 295 296 297 298 298 299 299 300 301 300 300 300 300 301 301 301 302 302 303 303 303
297 295 294 295 296 296 295 295 295 295 295 296 295 295 294 294 293 292 292 292 292 291 292 292 292 291 291 290 290 290 290 290 290 290 290 290 290 290 291 291 291 291 291 291 291 291 292 292 292 292 293 293 292 292 292 292 292 292 292 291 291 291 292 293 293 293 293 295 296 297 298 298 298 299 300 301 301 301 300 301 301 301 301 301 301 301 302
295 295 294 294 295 294 294 295 295 294 295 295 295 295 294 293 292 292 292 292 292 291 292 292 291 291 291 290 290 290 289 289 289 289 290 290 290 290 290 291 290 290 290 291 291 292 292 292 292 292 292 292 292 292 291 291 292 292 292 292 291 291 291 292 293 293 293 294 295 296 297 298 298 299 299 299 301 301 300 301 301 301 301 302 302 301 302
294 295 295 296 295 294 294 295 295 295 294 294 294 294 293 292 292 292 291 291 291 291 291 291 291 291 291 290 290 290 290 289 289 289 290 290 290 290 290 290 290 290 290 290 291 292 291 291 291 291 291 291 291 291 291 291 291 291 292 292 292 292 292 292 292 292 293 293 294 295 296 297 298 298 298 298 298 299 299 300 300 300 301 302 302 302 303
294 295 295 296 296 296 295 294 294 294 294 293 293 293 292 292 292 292 292 292 292 291 291 291 290 290 291 291 290 290 290 289 289 289 290 289 290 290 290 290 290 290 290 291 291 291 291 291 291 291 291 291 291 291 291 291 291 292 292 292 292 292 292 292 292 292 292 293 293 294 295 296 297 298 297 297 298 297 297 298 299 299 299 300 301 302 302
294 294 294 295 295 295 294 293 293 293 292 292 292 292 292 291 291 291 292 292 292 292 292 291 291 290 291 291 290 290 290 289 289 289 289 289 290 290 290 290 290 290 291 292 292 291 291 291 290 290 291 291 291 291 291 292 292 292 293 293 293 293 293 292 292 292 292 293 293 293 294 295 296 297 297 297 297 297 297 298 299 299 299 299 299 300 299
293 293 294 294 293 294 294 293 293 293 292 292 292 292 292 292 292 291 292 293 292 292 292 292 291 291 291 291 290 290 289 289 288 288 289 289 289 289 289 289 290 291 292 292 291 291 291 290 290 290 290 290 291 291 291 292 292 293 293 293 293 293 293 293 292 292 292 292 293 293 293 293 295 296 296 296 296 297 297 297 298 298 299 298 297 296 295
292 292 293 293 293 293 294 293 292 292 292 292 293 292 292 292 292 292 293 293 293 293 292 291 291 291 290 290 290 289 288 288 288 288 288 288 288 288 289 289 289 290 291 291 290 290 291 290 290 290 291 291 291 291 291 292 293 293 293 294 293 293 293 293 292 292 292 292 293 293 293 293 294 295 295 295 296 296 297 297 297 297 297 297 296 295 294
293 292 292 292 292 293 293 292 292 292 292 292 292 292 292 293 292 292 293 293 293 293 292 291 291 291 290 290 290 289 288 288 288 287 288 288 288 288 289 289 289 289 290 290 290 290 290 289 290 291 292 291 291 291 292 292 293 293 293 294 294 293 293 292 292 292 292 292 292 293 293 293 294 295 295 295 295 296 296 296 296 296 296 296 295 294 294
295 294 294 293 293 293 293 293 292 292 292 292 292 293 293 293 293 293 293 293 292 291 291 291 291 290 289 290 289 288 288 288 288 288 287 288 288 289 289 289 289 290 290 290 290 289 289 290 291 293 292 291 291 291 292 292 292 292 293 293 293 293 292 292 292 292 291 292 292 292 293 293 294 294 295 295 295 295 295 295 295 294 294 294 293 292 291
297 296 296 295 295 294 294 293 293 292 292 292 292 293 293 292 292 292 292 291 291 291 291 291 290 289 289 289 289 287 287 288 288 288 287 287 288 289 289 289 290 291 290 290 289 289 290 291 292 293 293 292 291 291 292 292 292 292 292 293 293 292 292 291 291 291 291 291 291 292 292 292 293 294 294 295 294 294 294 294 293 292 292 291 291 291 290
295 295 294 294 295 295 295 294 294 293 293 293 293 292 292 292 292 292 291 290 290 291 291 290 289 288 289 289 288 287 287 288 287 287 287 287 288 288 288 289 289 290 290 290 290 290 291 292 292 293 293 293 292 292 291 292 292 292 292 292 292 292 292 291 291 291 291 291 291 291 292 292 293 293 294 294 293 293 292 292 292 291 291 290 289 289 289
293 295 294 293 293 293 293 294 293 293 293 293 292 292 292 292 292 292 291 290 290 291 290 288 288 288 289 289 288 286 287 287 287 286 286 287 288 288 287 287 288 288 290 290 291 291 292 292 292 293 294 294 293 292 291 291 292 292 292 292 291 291 291 291 290 290 290 290 291 291 291 292 292 292 293 293 292 292 292 291 291 291 290 289 289 289 289
293 294 295 294 292 292 293 293 293 293 293 293 292 292 293 293 293 292 291 290 290 290 289 288 288 288 289 288 287 286 286 287 286 286 287 287 288 288 287 287 287 287 289 290 290 291 291 292 292 293 294 294 293 293 292 292 292 291 291 291 291 291 291 291 290 290 290 290 290 291 291 291 292 291 292 292 292 291 291 290 290 290 289 289 289 289 290
293 293 293 294 293 293 293 293 293 293 293 293 293 293 293 293 293 292 291 290 290 289 288 288 288 289 288 287 286 286 286 286 286 287 287 288 288 287 287 287 286 287 287 288 289 290 291 291 292 293 293 293 293 293 293 292 292 291 291 291 291 291 291 291 290 290 290 290 290 291 291 291 291 291 291 291 291 290 290 290 290 289 289 289 290 290 290
293 292 293 293 293 293 293 293 293 293 293 293 294 294 293 293 293 292 291 290 289 289 288 288 288 288 288 287 286 286 286 286 286 287 288 287 287 287 287 287 286 286 287 288 289 289 290 291 292 292 292 293 293 294 294 293 293 292 291 291 291 291 291 291 291 291 290 290 290 290 290 290 290 291 291 291 290 290 290 289 289 289 289 290 290 291 291
294 294 293 292 293 293 293 292 293 293 293 293 294 294 293 293 293 292 291 290 290 289 289 288 288 289 289 287 287 286 286 286 286 287 287 287 287 287 288 287 286 286 287 288 289 289 290 291 291 291 291 292 293 293 294 294 294 294 293 292 291 291 291 291 291 291 291 290 290 290 290 289 289 290 290 290 289 289 289 289 289 290 290 290 291 291 291
294 294 293 293 293 293 293 293 293 293 293 294 294 293 293 293 292 292 291 290 289 289 289 288 288 289 288 288 287 286 286 286 286 286 287 287 287 288 288 287 286 286 287 288 288 289 290 290 290 291 291 291 292 293 294 294 294 294 294 293 291 291 291 290 290 290 290 290 290 290 290 290 289 289 289 290 290 290 290 290 290 290 290 290 290 290 290
294 293 293 293 293 293 293 293 293 293 293 294 294 293 293 293 293 293 292 290 289 289 289 288 288 288 287 287 286 286 286 286 286 286 286 286 286 287 287 287 285 285 286 287 288 288 289 289 289 290 290 291 291 292 293 293 294 294 293 293 292 291 290 290 290 290 290 290 290 290 290 290 289 289 289 290 290 290 290 290 290 290 290 290 290 289 289
294 293 293 293 293 293 293 293 293 293 293 294 294 293 293 293 293 293 292 290 289 289 289 288 288 287 287 286 286 286 286 286 286 286 286 285 285 285 286 286 285 285 286 287 287 288 288 288 288 289 290 290 291 292 292 293 292 292 292 292 292 291 290 289 289 289 289 289 289 289 289 289 289 289 289 289 289 289 289 289 289 289 289 289 289 289 288
293 293 293 293 293 293 293 293 293 293 293 294 294 294 293 293 294 293 292 290 289 289 289 288 288 287 287 286 287 287 287 287 286 287 286 286 286 285 285 285 285 285 285 286 287 287 288 288 288 288 289 289 290 290 291 291 291 291 291 291 290 289 288 288 288 288 288 288 287 287 287 287 288 287 287 287 287 287 287 287 287 287 287 287 287 287 287
293 293 293 293 293 292 293 293 293 293 294 294 294 294 294 294 294 293 292 291 290 289 289 288 288 288 287 287 287 286 286 286 286 286 286 287 286 286 285 284 284 284 285 286 287 287 287 287 287 287 287 288 288 289 289 289 289 290 290 289 289 288 287 287 287 287 287 287 287 287 287 287 287 287 286 286 286 286 286 286 286 286 286 287 287 287 287
292 293 293 292 292 293 293 293 294 293 293 293 293 294 294 294 294 294 292 291 290 290 289 289 288 288 287 287 287 286 285 285 285 285 285 286 286 285 284 284 284 284 284 286 286 286 286 286 286 286 287 287 287 287 286 286 287 287 288 288 288 287 286 286 286 286 286 287 287 286 286 286 286 286 286 286 286 286 286 286 286 286 286 286 286 286 286
292 292 292 292 293 293 293 293 292 292 292 292 293 294 294 295 295 294 293 292 291 290 290 289 288 288 287 287 287 286 286 286 286 285 285 285 285 284 284 284 284 283 284 285 285 285 286 286 286 286 286 286 285 285 285 285 285 286 286 286 286 286 286 286 286 286 286 286 285 285 285 286 286 286 286 286 286 285 285 285 285 285 285 285 285 285 285
291 291 291 292 292 292 292 291 291 292 293 293 294 294 295 295 295 295 294 293 291 290 290 289 288 288 287 287 287 287 286 287 286 286 285 285 285 284 284 284 284 283 283 284 284 285 285 285 285 285 285 285 284 284 284 285 285 285 285 285 285 285 285 285 285 285 285 285 285 285 285 285 285 285 285 284 284 284 284 284 284 284 284 284 284 284 284
290 290 291 291 292 292 292 292 292 293 293 293 293 294 294 294 294 294 294 293 292 290 290 289 289 288 287 287 287 287 286 286 286 285 285 285 285 284 284 284 283 283 283 284 284 284 284 284 284 284 284 284 284 284 284 284 285 285 285 285 285 284 285 285 285 285 285 285 284 284 284 284 284 284 284 284 283 283 283 283 282 282 282 282 282 282 282
290 290 291 291 291 292 292 292 293 293 293 293 293 293 293 293 293 293 294 294 292 291 290 290 289 289 288 287 287 287 286 286 286 285 284 285 284 284 283 283 283 283 283 283 283 284 284 284 284 284 284 284 284 284 284 284 284 284 284 284 283 283 283 283 283 284 284 284 284 284 284 283 283 283 283 283 283 283 282 282 282 281 281 281 281 281 280
292 291 292 292 292 292 292 292 293 293 293 293 293 293 292 292 293 294 294 294 292 290 289 289 290 289 289 288 288 287 286 286 286 285 285 284 284 284 283 283 283 283 283 283 283 283 283 284 284 284 284 284 284 284 284 284 284 284 283 283 283 282 282 282 281 281 281 282 282 283 283 283 283 283 283 283 283 283 283 282 282 281 281 281 280 280 280
292 292 292 292 292 291 291 292 292 292 292 292 292 292 292 293 293 293 293 294 293 291 290 290 290 290 290 289 288 287 287 286 286 285 285 285 285 284 284 283 283 283 283 283 283 283 283 283 283 283 284 284 284 284 284 284 284 283 283 283 283 282 282 282 282 281 281 280 280 280 280 281 282 282 282 283 282 282 282 282 282 282 282 282 281 281 280
Wind_Speed
7 7 7 8 8 7 6 7 6 6 7 5 5 4 2 0 1 2 4 5 4 4 4 5 6 5 4 5 5 5 6 6 7 9 11 12 11 11 11 11 10 10 9 9 11 12 12 13 13 13 11 8 6 4 3 1 1 1 3 4 5 5 5 6 6 7 8 9 10 10 10 11 13 16 18 19 20 19 16 14 13 14 16 16 14 12 11
6 8 7 8 9 7 6 8 7 6 7 8 8 5 3 5 6 5 7 10 8 4 4 5 5 3 3 5 6 7 8 8 10 12 13 12 12 12 12 11 10 10 10 11 13 14 15 15 15 14 14 12 8 5 3 2 1 1 1 2 4 6 6 6 7 6 7 9 10 11 11 12 12 15 17 18 18 17 16 13 12 13 14 14 13 13 13
3 5 6 6 8 8 6 5 5 5 5 6 6 5 4 6 8 6 8 11 8 4 4 5 4 3 5 8 10 10 9 9 12 14 14 13 13 12 12 12 11 11 12 14 15 16 16 16 17 17 17 15 13 9 5 3 2 2 1 1 3 4 5 7 8 7 7 8 8 9 11 11 12 13 14 15 15 15 15 13 13 14 15 14 13 13 14
2 2 3 5 7 7 4 2 3 5 4 3 4 4 3 2 4 7 7 6 5 3 4 5 6 7 10 12 12 11 10 11 14 14 13 13 12 12 12 12 12 12 13 14 15 14 14 14 16 17 18 18 18 16 11 7 4 3 2 0 1 2 3 5 6 6 7 6 7 8 10 10 11 11 12 13 14 14 14 14 15 16 16 14 12 11 12
3 1 2 3 4 3 3 2 1 2 2 2 2 4 5 5 0 3 3 4 5 4 4 6 9 11 12 11 9 9 10 11 13 13 13 12 11 11 10 10 11 11 11 12 13 13 14 14 15 17 18 19 20 19 17 14 11 9 7 5 4 2 2 2 3 4 5 5 5 5 8 10 10 10 10 11 13 15 15 14 15 15 13 11 10 9 10
3 3 4 4 2 2 1 3 2 2 1 4 5 4 6 6 3 3 6 7 7 6 6 8 10 10 10 9 8 8 8 9 11 12 12 11 11 10 10 10 10 10 11 12 13 15 17 18 18 18 19 19 18 17 17 16 14 13 11 10 9 7 5 3 2 2 3 5 4 3 4 7 8 9 8 9 12 13 13 12 12 11 10 9 9 9 8
3 4 5 5 3 2 2 5 2 1 4 9 12 11 9 8 6 8 11 11 9 8 8 9 10 11 10 10 10 10 9 9 9 10 10 11 11 10 10 10 10 11 12 13 14 16 19 19 19 19 19 18 16 14 14 14 14 13 11 10 9 8 7 5 3 2 2 3 3 3 3 4 6 7 7 7 9 10 8 9 9 9 8 8 8 8 7
3 4 4 3 1 1 2 3 2 3 3 5 8 10 9 8 6 6 11 11 9 9 8 7 8 8 8 9 9 9 9 9 8 8 8 9 9 9 9 9 10 12 13 13 14 16 18 19 19 19 18 17 15 13 12 11 12 11 11 10 10 9 7 4 3 2 2 2 2 2 2 2 4 7 7 7 7 8 9 9 9 10 9 9 8 8 7
2 3 2 0 1 1 2 3 1 0 1 0 1 4 5 5 5 3 8 9 8 7 6 5 3 2 3 7 8 8 9 9 8 8 8 7 8 8 9 9 10 12 13 13 14 15 16 16 17 18 17 17 16 15 14 13 13 12 10 10 9 9 6 4 3 3 1 1 0 1 1 2 4 6 8 9 10 11 11 10 9 8 8 8 8 8 7
1 3 3 1 1 2 3 4 1 0 0 1 2 2 4 3 3 2 4 6 5 4 3 3 2 2 2 6 5 6 9 9 8 9 9 9 10 10 11 12 12 13 14 14 14 15 14 14 15 16 16 16 16 15 15 15 15 13 12 11 10 8 6 4 3 3 2 2 3 5 6 6 7 9 11 12 12 12 11 10 10 9 9 10 9 8 7
1 2 3 2 2 0 1 2 1 2 1 2 3 2 3 2 2 1 3 5 4 2 1 1 2 2 2 4 3 5 7 8 8 9 9 11 12 11 12 13 13 14 15 15 14 15 15 14 15 16 16 16 14 12 14 15 14 13 13 13 12 10 7 7 6 4 4 4 3 6 9 10 11 12 13 14 13 12 12 12 11 11 11 10 8 7 7
2 2 1 2 2 0 2 2 3 4 0 3 4 4 4 3 1 1 3 6 5 3 2 2 2 1 2 3 3 5 6 6 8 9 9 11 12 12 13 15 15 15 16 16 15 16 16 16 16 15 16 16 14 12 14 14 13 12 13 14 13 12 10 10 11 11 11 10 8 7 7 9 11 12 13 14 14 14 14 13 12 12 11 9 7 6 5
2 2 2 0 1 1 1 3 4 3 1 4 4 2 3 4 3 2 4 6 6 5 4 3 4 4 3 3 3 4 5 6 8 9 10 10 10 12 13 14 16 16 16 16 15 15 16 16 16 16 16 14 13 12 13 13 12 12 15 15 14 14 13 12 12 13 14 15 15 14 11 10 10 11 12 13 14 15 16 15 13 13 12 10 8 6 5
1 2 2 1 1 1 2 4 4 2 2 3 2 2 2 4 5 4 4 5 5 5 6 5 4 4 4 4 4 5 6 6 7 8 9 10 10 11 11 12 14 14 13 14 15 15 16 17 16 17 17 15 13 12 12 12 13 14 16 16 17 16 16 15 14 14 14 15 15 16 16 15 15 14 13 12 13 15 16 15 15 14 13 12 9 7 5
1 2 2 1 2 2 4 4 2 1 0 2 4 4 3 4 6 5 5 5 4 4 5 5 4 4 4 4 5 5 5 5 6 7 8 9 10 11 12 12 14 14 13 13 14 15 17 18 17 17 18 17 15 14 12 13 14 15 15 16 17 18 18 17 16 15 15 15 14 14 16 17 19 20 20 18 17 17 17 16 16 15 14 13 11 8 6
1 1 2 0 1 3 4 2 1 4 4 3 4 5 4 4 4 4 4 5 4 4 4 4 4 4 4 4 4 4 5 6 7 8 9 10 10 11 12 12 13 13 13 14 15 15 16 17 17 17 16 16 15 15 15 15 16 16 16 16 17 18 19 19 19 17 16 15 15 14 15 16 19 21 23 24 24 24 23 21 19 17 16 14 12 10 9
2 3 3 2 1 3 4 4 5 6 6 5 4 5 5 4 2 3 3 4 4 4 4 3 3 4 4 3 3 4 5 5 6 8 9 9 10 10 11 11 12 13 13 13 15 16 15 15 16 16 15 15 16 17 18 18 19 18 18 18 19 19 19 19 20 20 19 18 16 15 15 16 18 20 22 24 26 27 27 25 23 21 20 19 16 13 12
5 5 4 3 2 3 5 6 5 5 5 4 4 5 5 3 2 3 3 3 4 3 4 4 3 3 3 3 3 4 4 5 6 8 8 8 9 10 10 11 11 12 12 12 13 15 15 15 14 15 14 14 16 19 21 23 23 21 20 20 20 21 21 20 21 21 21 20 19 17 16 16 18 20 23 24 25 27 27 25 24 23 22 20 18 15 14
2 3 3 2 3 3 4 4 4 5 5 4 4 4 4 3 3 4 3 3 4 4 4 4 3 3 3 4 5 4 4 5 6 8 8 9 10 11 12 13 13 13 12 13 13 15 16 15 14 15 15 15 16 18 19 21 23 23 23 23 22 21 20 20 20 20 19 20 21 20 18 17 16 18 22 24 25 28 29 27 24 24 23 21 20 19 18
2 3 4 2 2 2 2 2 3 4 5 5 5 4 5 4 4 4 4 3 3 3 4 4 3 4 4 4 5 5 5 5 7 8 10 11 12 13 13 13 13 13 13 13 14 15 16 16 16 16 17 17 17 18 18 19 19 20 22 23 23 22 21 21 21 21 19 19 19 19 20 18 16 16 19 22 24 28 31 31 29 27 25 25 24 23 22
4 3 3 3 3 3 2 1 2 2 3 5 6 5 5 4 4 5 4 4 4 4 4 4 4 5 5 6 7 7 7 7 9 11 13 14 14 14 13 13 12 12 13 13 14 15 16 16 16 16 17 17 18 18 18 17 17 18 20 21 22 23 23 21 22 23 22 20 18 17 18 19 17 16 17 20 24 27 28 29 30 30 28 27 26 24 22
3 2 5 6 3 2 3 4 4 3 3 5 6 5 4 4 4 3 3 3 3 4 4 5 5 5 5 7 9 9 9 10 12 13 14 14 13 13 13 13 13 13 13 13 14 15 14 14 15 15 16 17 17 17 17 16 16 17 18 19 20 20 20 20 21 21 21 19 18 16 16 17 18 16 15 16 20 24 26 26 27 28 27 27 26 24 22
1 2 6 6 1 2 3 5 5 4 4 4 5 4 3 3 3 3 2 2 2 3 4 4 4 5 6 8 10 10 11 12 12 13 13 13 13 14 13 13 14 14 14 14 14 15 15 15 15 16 16 17 17 17 18 17 17 18 18 18 19 19 18 19 20 20 20 18 17 15 14 15 16 16 15 14 14 17 21 23 23 22 23 24 24 23 22
2 1 5 4 2 3 3 4 4 4 4 3 3 3 2 3 3 3 2 1 0 1 2 2 3 4 7 9 10 10 11 12 12 12 13 12 13 13 13 13 14 15 16 15 15 15 16 16 17 17 17 18 18 17 17 17 18 18 18 19 19 19 19 19 19 19 19 19 17 15 14 14 14 14 13 12 12 12 14 16 17 17 17 18 17 17 18
2 3 4 3 3 4 4 4 4 3 3 3 2 2 2 3 3 2 2 1 1 2 3 4 5 5 6 9 10 10 11 11 11 12 13 12 12 13 13 13 14 15 15 15 16 16 16 17 18 18 19 19 18 17 17 17 18 19 19 19 20 20 20 20 19 18 18 18 17 16 15 14 14 13 12 11 11 10 11 13 16 17 18 18 17 16 16
3 6 6 5 5 4 4 3 3 3 3 3 2 2 3 3 3 3 3 2 2 3 4 6 6 6 6 8 10 10 11 11 11 11 11 11 12 13 13 13 14 14 15 15 16 16 17 17 18 18 18 19 18 18 18 19 20 20 20 21 21 21 21 20 20 19 18 18 18 17 15 14 14 14 14 13 12 11 9 9 11 14 16 19 20 19 19
5 6 7 6 4 2 3 2 2 3 4 3 2 3 4 3 4 4 3 3 3 4 5 5 5 5 6 7 9 9 10 10 10 10 10 11 12 13 13 13 14 14 15 15 15 15 16 17 17 18 19 20 19 19 19 20 21 22 22 22 23 22 23 23 23 21 20 19 18 17 16 16 15 14 14 14 15 16 15 11 9 10 13 15 17 18 19
4 3 2 2 2 4 4 3 2 3 4 4 3 4 4 4 4 4 4 4 3 4 4 3 3 4 6 7 9 10 10 10 10 10 10 11 11 12 13 13 13 13 13 13 13 14 15 15 17 19 21 21 20 20 20 20 21 23 23 24 25 24 23 24 24 22 21 20 19 18 16 15 15 16 15 13 12 15 16 14 13 13 14 14 16 17 18
4 1 2 2 2 4 5 4 3 4 4 4 4 4 4 4 4 4 4 4 3 3 4 4 4 4 5 6 8 9 10 10 10 10 11 11 12 12 12 12 13 13 11 11 12 13 14 15 17 19 22 23 22 21 21 22 23 24 24 23 24 24 24 24 23 22 21 20 18 18 16 14 14 16 16 13 11 10 11 12 14 14 14 15 16 16 16
3 2 2 3 5 7 7 6 5 5 5 5 5 5 5 5 4 4 4 4 3 4 5 4 4 4 5 5 6 8 9 9 9 9 10 11 11 11 11 11 12 11 10 11 13 14 15 17 20 22 23 24 24 23 23 23 22 22 21 21 21 21 22 24 24 22 21 19 17 15 15 15 14 15 15 13 11 9 8 10 13 14 14 15 15 14 15
4 4 4 5 5 6 6 5 5 5 5 5 5 5 5 5 5 5 4 4 4 4 5 5 5 5 5 5 6 8 9 9 9 9 9 9 10 11 12 11 11 10 11 14 15 15 15 18 23 25 26 26 25 23 22 22 19 18 18 18 18 16 15 19 22 22 20 19 15 13 13 15 15 14 14 13 11 9 9 10 12 14 15 14 14 16 18
7 5 5 4 4 4 4 4 5 5 5 5 5 5 5 4 4 4 5 5 5 5 5 6 6 6 6 6 7 8 9 10 10 8 7 9 11 12 12 11 10 10 12 13 14 13 15 19 23 25 26 26 24 21 21 20 18 17 17 17 16 13 9 9 16 19 18 18 15 11 11 14 15 14 13 13 12 11 10 10 11 11 12 12 12 14 19
7 4 3 4 4 4 4 4 5 5 5 5 5 4 4 4 4 5 5 6 6 5 6 7 7 6 6 6 6 6 7 9 9 7 7 10 12 12 11 10 10 10 10 11 13 15 17 21 23 24 25 24 21 20 21 21 18 16 15 14 12 11 7 2 9 12 14 15 13 10 10 13 14 13 12 12 12 12 11 10 9 9 10 10 10 11 18
6 4 4 5 6 6 6 6 5 4 4 4 4 4 4 4 5 5 6 6 6 6 6 6 5 6 6 6 5 5 6 7 7 7 9 12 13 12 11 10 10 10 9 12 16 18 20 21 22 23 24 23 20 19 21 20 17 15 14 12 11 9 7 2 2 5 7 10 10 9 11 13 13 12 12 13 13 12 11 10 10 11 11 11 12 13 17
5 3 3 4 6 6 6 6 6 5 4 4 3 4 4 5 5 5 5 5 5 4 4 3 4 6 6 5 5 5 6 6 7 9 10 10 11 12 12 11 12 13 13 14 18 20 20 21 21 20 22 23 21 20 20 19 16 14 13 12 11 10 9 8 5 2 3 5 5 6 8 10 12 13 13 12 12 12 12 12 13 13 14 15 16 18 19
6 4 3 3 5 6 6 6 7 7 6 5 4 4 4 5 4 4 5 4 3 2 2 2 4 4 4 4 5 6 6 6 7 8 9 8 9 11 12 12 14 16 15 16 20 21 21 21 21 19 19 21 22 21 19 17 16 14 12 12 12 11 11 12 11 9 8 7 7 7 7 9 10 11 11 10 10 11 12 13 14 15 16 19 22 23 22
7 6 4 4 6 7 7 8 9 9 8 6 5 5 5 5 5 6 5 3 1 2 1 2 3 3 2 2 4 5 5 5 7 8 7 7 8 10 11 12 14 14 13 14 19 21 20 20 21 20 18 18 20 20 19 18 17 15 14 13 13 13 13 13 13 13 13 12 12 12 12 11 12 11 11 11 12 13 14 15 16 17 19 22 24 25 22
7 7 7 7 9 10 9 9 9 9 8 6 5 6 6 6 6 7 6 4 2 3 2 2 3 2 1 2 3 4 4 5 6 6 6 6 7 8 8 10 11 12 11 13 17 19 18 19 20 20 17 16 16 17 18 19 19 18 16 15 15 15 15 16 15 15 14 14 13 13 13 13 14 14 14 13 14 14 16 18 20 22 23 24 23 22 20
5 6 7 7 9 10 9 8 9 9 8 6 6 7 7 6 7 6 6 4 3 4 4 3 2 1 2 2 2 3 4 4 5 6 5 5 6 6 5 7 11 12 12 13 15 15 16 17 17 17 16 15 14 14 15 17 18 19 18 17 16 16 16 16 15 15 15 15 16 17 17 16 16 15 15 15 16 18 20 22 24 25 25 24 22 20 18
5 6 7 8 9 10 9 8 9 10 10 9 8 8 8 7 7 7 6 5 4 4 5 4 3 3 3 3 2 2 3 3 4 5 5 5 7 6 4 7 12 15 13 13 14 14 14 15 15 14 14 14 13 12 12 13 16 17 17 16 16 15 15 15 15 15 16 18 19 20 21 21 21 19 18 18 19 21 23 25 26 25 24 23 21 18 16
5 7 8 9 9 10 10 10 10 11 11 10 10 10 9 9 8 8 6 5 4 4 6 6 5 4 3 3 3 3 2 2 1 3 4 5 6 6 4 7 13 15 14 13 13 13 13 14 14 13 13 13 13 12 11 11 13 15 15 14 13 14 15 16 17 17 18 19 19 19 21 23 23 22 24 25 24 24 25 24 23 22 22 20 19 17 17
6 7 8 8 9 10 12 11 11 10 11 11 11 11 10 9 9 9 7 5 4 5 6 7 6 5 4 3 4 4 3 3 1 2 3 4 5 5 4 7 12 15 13 12 12 13 13 14 14 13 12 12 11 11 11 11 13 15 15 14 14 13 13 14 16 16 16 17 17 17 19 20 20 20 22 24 24 24 23 22 20 19 19 18 18 18 19
8 8 8 8 9 11 13 12 11 10 11 12 12 11 10 10 9 9 8 7 6 5 6 7 7 6 5 5 5 4 4 4 3 1 1 1 3 4 5 8 11 13 12 11 12 13 14 14 13 12 12 11 10 10 11 12 14 15 15 16 16 15 13 13 12 12 12 13 13 13 14 15 16 17 18 18 18 18 18 17 16 15 15 16 18 20 21
11 11 10 10 11 11 12 12 11 10 10 12 12 10 10 10 9 8 8 8 7 6 6 7 7 7 7 6 6 5 4 4 3 2 2 1 1 3 5 7 10 11 10 10 11 12 13 13 13 12 11 10 10 10 12 13 14 15 15 15 16 15 13 12 11 11 11 11 11 10 10 11 12 12 13 13 13 13 12 11 11 11 11 13 16 19 19
12 13 14 12 11 10 11 12 12 12 12 12 12 11 10 10 9 8 8 8 8 7 7 7 7 8 8 7 6 5 4 3 3 3 2 1 1 2 4 6 8 9 8 8 9 11 12 12 11 11 10 10 10 11 13 14 15 16 16 17 16 15 13 12 11 12 12 12 11 11 10 10 10 10 11 11 12 11 11 11 11 11 11 11 13 14 14
12 13 13 12 12 14 15 14 14 13 12 10 9 10 12 12 10 9 9 9 9 8 7 7 7 7 7 7 7 5 3 3 4 4 2 1 1 2 3 5 7 8 7 7 7 9 10 10 9 9 9 9 10 12 14 15 15 16 17 17 17 17 16 14 13 12 12 12 12 12 11 11 11 11 12 13 13 13 12 12 11 10 10 10 10 10 10
12 12 13 14 16 16 14 12 11 10 9 8 8 10 13 13 12 10 10 10 10 9 8 7 6 6 7 8 8 6 4 3 3 3 3 2 0 2 2 3 5 6 6 6 7 7 8 8 7 8 8 10 12 15 16 16 16 17 17 17 17 16 16 15 14 13 12 11 11 11 12 11 11 11 12 12 12 11 11 11 11 10 9 9 9 9 8
14 14 14 15 15 13 11 9 9 9 10 11 12 14 14 14 13 12 11 11 11 11 10 9 8 7 7 8 8 7 6 4 3 3 3 3 1 1 1 2 4 5 5 5 6 7 7 7 7 7 9 11 14 16 18 18 19 19 19 18 18 17 15 13 12 12 11 10 10 10 10 10 10 10 10 10 9 9 9 8 8 7 7 7 7 6 6
14 14 13 11 11 10 10 9 9 9 12 15 16 17 16 14 13 13 13 13 13 14 13 12 10 9 7 7 8 8 8 6 4 3 3 4 3 3 2 1 2 4 4 5 5 6 6 7 8 8 10 12 15 16 16 18 19 20 19 19 19 18 16 14 14 13 12 11 11 11 11 11 11 10 10 10 10 10 9 9 9 8 7 7 6 6 5
12 11 10 10 11 12 12 11 10 12 16 17 17 17 16 13 11 12 15 15 14 15 15 15 14 12 10 9 8 9 9 9 7 5 4 5 5 4 4 3 2 2 3 4 4 5 5 6 7 9 11 12 14 15 15 16 18 18 18 18 18 18 17 16 16 15 13 12 12 12 12 12 12 11 11 11 11 11 11 11 11 10 9 8 7 7 6
11 11 11 12 13 13 13 12 13 15 17 17 16 15 14 13 13 15 17 16 16 16 16 16 15 15 14 12 11 10 10 10 10 8 7 7 7 6 5 4 4 3 2 3 4 5 5 5 6 8 9 11 12 14 15 16 16 16 17 17 18 17 17 17 17 17 16 14 13 12 12 11 12 12 13 13 13 12 11 12 12 12 11 11 10 9 8
12 12 12 12 12 12 12 13 14 14 15 16 15 15 15 15 15 15 16 16 17 18 17 16 16 17 17 16 14 12 11 11 11 11 10 10 10 8 6 6 6 5 4 4 4 5 5 5 5 7 8 10 11 12 14 15 16 16 16 16 16 16 16 16 16 16 16 16 15 15 14 13 13 13 13 13 12 12 12 12 13 12 12 12 12 11 11
Wind_Direction
53 46 41 45 63 79 67 45 26 5 4 27 62 56 12 17 138 147 126 110 98 62 17 8 11 9 25 42 44 59 66 68 74 70 64 59 54 53 53 51 51 52 51 51 50 48 48 50 52 54 56 63 74 89 108 134 180 238 259 262 260 257 255 259 264 266 259 246 238 237 242 243 234 225 221 218 216 219 223 227 230 231 232 231 226 224 229
29 12 11 34 54 63 57 46 38 27 33 54 69 60 51 80 78 78 102 99 81 42 7 13 17 13 44 62 60 63 64 69 74 70 65 62 57 55 56 54 54 57 56 55 52 48 45 44 46 52 58 64 69 76 90 95 91 144 224 254 260 256 251 251 252 253 253 248 241 237 235 234 227 218 216 214 214 218 221 225 230 231 232 230 225 229 242
13 341 347 17 45 53 47 33 21 22 37 52 60 59 56 76 88 96 96 91 79 45 26 36 35 38 64 66 59 56 53 57 68 69 63 60 57 54 54 52 52 53 52 51 48 45 41 39 42 49 57 65 69 72 84 102 98 107 139 217 262 265 262 260 257 254 254 254 249 239 231 226 220 214 212 212 212 216 216 215 221 227 231 232 230 236 246
184 294 347 15 38 40 20 350 3 8 16 43 58 58 21 18 122 131 112 94 92 83 69 63 58 60 64 62 57 57 56 55 63 67 64 61 58 54 52 51 49 48 47 45 42 41 39 37 38 42 48 57 61 62 68 75 76 84 94 120 275 281 278 274 277 277 278 280 270 252 236 226 219 214 213 213 212 213 212 210 215 221 225 226 226 232 238
165 116 85 61 48 28 308 290 63 30 43 96 83 53 23 357 308 151 120 113 118 116 106 84 69 62 61 57 52 55 60 61 65 67 66 64 59 54 53 52 51 49 47 45 44 42 40 39 39 39 42 48 52 56 60 61 59 60 61 55 45 19 337 300 302 306 309 312 301 266 241 232 231 229 228 225 221 218 213 210 212 215 217 217 213 214 219
139 110 114 113 131 184 272 337 293 261 103 105 100 62 25 14 31 81 92 107 116 116 107 94 83 73 65 62 55 49 52 60 64 64 63 63 58 53 49 46 46 46 44 45 45 44 43 40 38 38 37 38 41 47 54 57 55 54 54 53 48 40 36 41 34 7 346 332 323 302 251 233 234 237 233 230 233 231 223 216 215 212 214 218 212 204 203
119 125 128 137 176 221 348 359 333 177 116 105 97 78 45 34 60 91 99 106 112 110 104 98 95 90 81 71 59 49 47 52 57 57 53 51 51 49 44 39 36 36 38 39 36 36 39 38 36 34 31 27 26 30 39 47 51 51 48 43 36 28 29 43 52 43 19 344 316 298 267 233 229 232 227 224 231 230 217 207 202 188 182 186 182 177 179
128 149 155 160 188 333 12 35 60 95 113 112 94 73 47 25 28 87 106 110 115 114 112 108 103 102 97 79 60 45 44 49 56 59 49 42 42 42 40 34 29 27 29 31 29 28 31 33 33 32 28 23 19 18 20 24 31 38 39 33 27 17 9 16 28 24 49 63 27 324 291 260 244 238 230 217 201 180 163 159 154 146 141 139 134 137 142
140 136 134 67 347 297 155 138 133 98 92 39 71 83 66 27 2 60 111 119 124 127 130 129 124 141 114 85 60 38 35 37 45 53 49 40 37 33 33 33 31 28 26 26 25 25 26 28 27 24 20 17 15 14 13 10 7 8 12 15 18 17 9 4 5 349 317 179 162 237 254 264 241 218 200 182 166 157 151 146 142 141 139 133 127 125 125
80 106 116 124 241 220 167 134 112 36 82 266 253 129 98 54 2 15 115 123 124 139 158 159 186 235 101 86 62 31 29 26 28 38 38 35 33 29 26 25 22 20 20 18 18 20 22 23 20 16 11 8 8 7 8 7 4 2 2 0 359 359 353 339 351 13 0 288 231 212 211 212 195 181 175 171 168 167 163 155 150 151 148 138 128 118 110
99 122 145 181 193 190 80 102 11 335 295 218 214 159 122 97 9 0 115 107 94 95 126 138 176 206 142 109 77 23 20 23 25 29 28 27 28 26 24 22 16 12 14 13 13 14 13 10 8 6 2 0 0 360 357 356 357 359 359 356 351 344 328 304 293 304 326 319 267 219 214 207 190 180 179 179 177 175 170 161 156 156 154 145 130 116 102
141 140 153 218 204 55 6 327 321 333 1 172 190 187 156 135 111 70 99 90 71 55 56 71 85 75 91 103 71 19 14 25 30 29 24 21 21 20 20 18 14 11 12 12 10 9 5 359 356 354 352 350 348 348 346 345 348 352 349 346 343 337 324 305 290 286 288 290 284 265 237 217 205 197 192 189 185 180 177 173 169 167 168 162 149 131 109
127 149 141 142 219 189 283 303 318 325 192 184 195 183 131 121 123 105 89 85 70 59 60 64 65 58 56 69 57 28 24 28 27 24 21 19 20 19 15 13 11 7 6 5 2 359 355 352 349 346 344 340 335 333 334 333 336 338 336 332 331 328 323 313 302 295 290 285 280 275 264 247 230 214 203 201 199 193 187 184 180 178 178 174 167 157 137
94 127 115 98 160 99 347 310 304 287 215 192 154 113 101 114 118 104 83 80 72 66 68 69 74 77 68 57 46 36 31 25 16 14 13 11 13 10 5 6 7 0 353 352 351 347 344 344 343 342 340 336 330 325 322 322 325 328 326 322 321 320 318 314 310 304 299 294 285 274 263 255 245 234 225 218 209 201 197 194 189 186 184 182 178 172 163
116 111 101 176 171 60 352 309 278 330 352 131 120 114 109 105 106 104 90 76 64 68 77 76 77 80 68 48 35 30 27 20 8 4 5 2 360 358 355 356 357 352 344 341 339 336 333 332 332 333 333 332 329 323 317 314 315 316 315 313 311 310 308 308 307 305 302 301 296 283 266 254 245 239 236 232 222 213 209 204 197 192 190 189 189 186 184
286 130 115 109 31 9 345 323 99 70 66 102 118 113 108 99 99 103 93 77 63 61 71 75 76 71 50 32 23 14 9 6 357 353 355 354 351 349 347 346 346 345 338 333 330 328 327 326 323 321 322 323 320 314 308 305 305 304 303 303 302 301 300 300 300 301 300 299 298 293 279 263 250 241 238 236 229 223 219 215 209 205 202 198 194 193 197
39 65 88 85 35 18 19 47 78 78 76 80 84 90 94 89 82 86 89 94 89 70 63 68 68 56 36 18 15 5 353 349 346 345 346 345 342 339 337 336 338 337 331 326 323 321 320 321 318 313 311 309 304 300 297 298 300 301 300 298 297 295 296 295 295 296 297 295 295 293 287 277 262 247 237 231 224 220 218 215 211 206 202 200 197 196 200
87 62 59 55 40 42 41 46 58 65 66 66 71 84 90 81 74 81 87 99 94 67 56 62 56 41 24 1 355 352 339 332 335 338 338 337 337 333 329 329 330 327 322 319 317 315 316 317 315 310 306 299 292 291 291 292 293 295 296 296 295 292 290 290 290 292 293 293 292 290 288 285 274 257 244 235 228 221 215 210 207 202 197 197 199 200 203
114 91 103 79 40 49 49 52 66 69 63 57 55 74 90 89 79 77 73 79 78 56 49 50 30 11 12 0 346 339 330 327 332 335 335 335 334 331 328 327 327 325 322 320 318 317 317 317 315 312 308 301 294 292 291 289 288 287 288 287 287 287 286 286 286 285 286 288 288 288 286 285 281 270 254 242 232 224 214 206 203 200 197 198 201 202 204
61 103 126 115 68 66 47 53 91 98 88 82 76 82 97 96 81 76 69 63 63 52 45 43 13 354 2 359 345 335 327 327 330 333 334 333 332 331 330 329 328 326 322 320 319 318 317 316 314 311 308 304 300 297 294 291 287 283 280 279 278 278 278 279 279 278 278 279 280 281 281 279 281 277 260 243 230 222 214 207 204 203 201 201 203 203 204
89 95 130 147 138 134 144 127 117 116 106 102 97 92 96 95 89 86 77 64 61 56 46 33 4 351 356 357 348 337 329 330 332 332 333 332 332 332 333 331 330 328 323 321 320 318 316 315 314 310 307 305 303 300 297 294 290 284 279 277 275 272 269 268 268 269 270 269 267 268 271 272 272 274 264 246 232 225 220 213 208 207 206 205 206 206 205
130 160 171 168 155 142 168 169 151 137 132 125 121 116 109 109 112 106 87 76 73 61 44 28 10 357 352 351 346 335 328 329 329 329 331 332 331 332 333 331 329 326 323 321 318 315 313 311 306 303 301 300 299 298 296 293 289 284 282 280 277 272 265 261 259 259 262 262 259 259 262 263 262 263 263 252 237 230 229 224 216 211 209 208 209 207 206
132 194 169 162 109 47 144 156 148 147 156 145 133 125 110 109 113 102 83 77 62 42 36 31 18 2 351 346 341 332 325 325 325 326 329 330 328 328 328 327 324 323 322 321 317 312 309 307 303 300 297 296 296 296 293 289 283 279 278 276 274 272 268 262 257 255 256 257 257 256 257 258 255 250 248 248 243 235 233 231 228 225 219 213 211 211 209
61 122 155 151 74 60 114 135 135 145 161 148 126 115 112 120 120 111 108 125 346 353 7 14 6 351 342 340 335 327 323 324 324 325 326 325 323 324 324 323 322 321 321 319 315 311 308 306 304 303 299 297 297 296 293 290 283 277 272 267 267 268 269 268 263 257 253 252 252 252 253 254 253 243 232 230 236 238 233 228 228 232 231 222 217 216 214
73 105 129 116 71 80 100 109 111 124 138 134 130 141 143 134 131 142 163 188 247 294 313 327 330 326 327 331 330 326 323 323 325 326 326 325 325 324 323 323 323 320 316 313 310 309 308 307 307 306 302 301 301 300 297 293 288 280 271 263 260 260 262 266 267 261 253 248 246 245 243 243 245 242 230 218 214 219 225 219 213 217 224 226 226 226 223
89 106 107 90 76 90 112 117 123 147 153 136 132 151 152 150 165 182 207 244 269 281 295 309 316 317 318 324 327 327 325 324 326 329 328 327 327 325 323 322 320 313 308 308 309 310 311 310 310 307 303 303 305 304 301 298 293 285 277 267 260 256 254 256 259 261 257 250 244 241 238 234 234 235 234 228 218 211 211 207 202 208 216 218 217 218 217
120 120 115 103 96 141 189 182 156 166 166 159 160 163 164 178 196 207 232 253 261 277 290 297 304 311 316 322 328 332 330 329 330 333 331 329 327 323 319 316 313 308 307 308 311 313 313 312 311 307 305 308 310 308 304 301 295 287 281 273 265 258 254 252 251 253 254 252 245 239 235 232 228 228 232 234 229 220 214 209 204 208 213 211 205 203 202
138 117 89 104 155 192 196 188 153 149 152 157 168 168 170 189 210 227 246 255 264 284 299 307 311 313 319 329 336 338 336 333 333 332 330 327 321 317 315 313 310 308 308 309 311 313 314 314 313 312 315 320 321 315 311 308 301 293 287 280 271 261 253 249 247 243 243 246 244 239 234 229 225 225 229 233 229 220 215 213 210 210 209 203 195 192 192
159 127 46 55 108 130 133 136 146 152 148 156 168 173 184 205 222 237 253 265 277 286 296 311 317 313 315 327 338 341 336 330 327 325 322 319 317 316 317 316 313 310 309 311 315 318 319 319 321 323 326 330 331 329 326 322 314 306 300 293 284 269 253 246 242 236 234 237 238 236 231 225 222 223 224 224 221 215 208 203 201 201 197 190 184 182 182
146 121 101 105 116 126 132 147 169 172 165 171 181 188 202 219 236 251 262 267 268 272 284 296 304 307 310 316 328 333 327 319 316 315 312 311 314 317 321 322 320 317 316 321 325 326 325 326 330 332 335 338 340 339 336 331 322 313 309 308 302 286 263 247 238 232 229 229 230 230 226 220 217 218 217 214 211 208 202 198 197 195 189 181 175 170 168
112 103 115 123 135 147 151 159 172 176 176 185 199 208 211 218 237 258 271 273 268 273 283 282 280 293 305 307 315 323 323 318 316 312 308 312 320 328 332 331 324 318 318 324 328 329 329 332 337 340 344 348 348 344 339 335 328 322 323 326 324 313 284 251 233 225 225 224 222 222 222 215 209 208 208 206 201 195 193 192 192 190 185 179 176 176 173
112 106 118 132 151 167 165 163 172 179 185 194 206 215 215 220 241 262 274 281 280 281 284 281 282 293 301 301 307 319 323 322 319 313 314 325 333 338 339 334 327 322 323 327 330 331 335 340 344 349 354 356 353 348 348 347 339 334 337 342 345 345 327 255 225 221 224 223 216 212 211 207 200 196 198 200 198 193 193 190 185 182 179 172 171 176 177
131 133 156 172 179 188 195 192 187 187 192 199 211 225 228 233 249 261 271 281 285 282 280 283 291 300 296 289 295 311 323 325 321 319 328 337 341 344 344 342 340 340 339 340 344 347 350 353 354 358 2 2 357 355 0 1 353 345 347 351 356 2 2 272 221 220 223 221 214 203 197 196 191 186 189 198 200 195 191 181 168 160 158 156 160 170 172
159 165 180 182 189 202 208 200 192 195 206 213 222 234 241 248 255 264 272 276 274 277 284 291 301 304 294 284 293 320 336 336 328 325 333 338 340 342 348 355 0 3 3 1 358 358 1 2 2 3 7 8 4 4 9 11 4 358 1 8 15 22 29 30 230 226 220 214 209 200 193 191 187 184 190 198 197 188 176 162 151 144 140 142 154 167 168
158 135 138 174 196 208 206 195 191 197 207 215 220 229 246 261 267 274 283 280 270 275 293 306 308 305 299 298 313 332 342 339 326 324 332 339 340 342 349 0 6 10 15 15 8 5 6 8 7 8 12 14 14 13 16 18 14 9 12 23 34 43 52 58 61 86 153 173 176 173 174 177 177 180 185 186 179 170 160 151 147 144 138 137 146 153 155
163 146 136 177 195 195 193 194 195 195 200 212 227 240 263 283 288 291 299 296 276 263 288 319 320 310 299 304 322 331 334 330 328 331 338 342 343 347 353 0 4 8 13 14 11 9 10 10 9 11 15 19 21 21 22 25 26 22 23 32 41 48 59 64 65 69 86 105 114 121 135 149 156 161 164 156 144 140 139 137 137 137 136 140 145 147 147
183 179 174 181 184 185 191 200 202 202 205 216 233 249 270 292 306 313 318 316 258 210 234 327 333 317 283 297 323 329 325 323 329 338 344 348 351 355 357 0 3 5 6 3 3 6 9 9 9 11 16 22 27 28 29 35 40 38 36 39 43 48 57 64 65 67 75 87 98 107 115 120 123 127 130 127 124 125 127 126 126 128 131 137 141 142 141
190 196 197 193 187 188 194 202 207 211 214 222 241 258 270 288 305 315 319 312 240 206 229 311 331 313 272 304 323 324 322 326 334 341 348 356 1 359 358 359 2 1 357 353 355 2 8 10 10 11 16 25 34 34 34 41 49 51 50 51 53 55 59 64 68 71 74 78 84 91 96 100 104 110 115 116 118 121 123 123 125 127 128 131 134 135 136
178 191 199 198 195 196 199 202 208 216 222 229 247 262 274 289 304 311 311 301 255 217 229 265 279 234 236 269 304 320 325 333 344 353 3 17 18 10 5 10 11 9 2 356 356 2 10 12 11 13 18 27 36 39 39 44 53 58 58 58 59 59 61 64 69 73 76 78 81 85 89 92 95 101 107 112 116 120 122 125 127 127 128 130 132 134 140
174 184 191 195 200 205 207 206 212 223 232 240 250 263 276 290 302 303 294 288 272 240 233 236 229 222 233 243 260 295 307 320 351 9 21 29 26 20 14 15 15 14 10 6 6 9 14 16 16 19 25 31 36 42 46 50 56 61 63 62 60 62 65 67 70 74 79 82 84 85 89 92 93 96 103 109 113 116 121 125 127 129 131 135 138 142 150
193 191 192 197 203 209 213 215 221 230 238 243 251 263 273 282 289 289 280 279 280 258 240 233 230 232 236 229 223 232 240 247 343 18 26 24 19 13 6 9 12 12 11 11 14 17 21 24 25 27 31 36 40 43 47 53 60 65 68 66 63 62 65 70 74 78 83 86 87 88 92 95 95 97 104 109 113 116 121 125 128 130 134 137 141 145 150
199 192 193 200 208 213 217 221 224 232 240 245 251 262 270 275 280 279 270 263 268 263 248 239 237 242 240 222 215 220 222 221 250 9 27 27 18 10 2 4 8 10 10 14 21 26 29 32 33 34 36 39 41 42 46 55 63 68 71 74 73 69 68 72 76 77 81 84 86 88 93 97 98 100 105 109 113 118 121 124 126 128 131 135 138 141 143
212 202 197 203 211 215 220 223 224 230 241 248 253 260 268 275 282 279 263 249 251 257 250 240 237 240 236 222 214 221 230 230 232 266 353 21 27 26 17 8 6 8 11 18 27 32 34 37 38 39 40 42 44 47 53 60 66 70 73 77 79 77 73 70 69 69 70 74 76 77 83 90 95 98 102 106 110 114 117 119 120 122 124 130 136 139 139
221 218 218 221 222 221 220 222 222 225 237 247 255 259 266 275 283 277 256 243 246 249 244 238 236 236 234 228 223 226 230 225 223 243 267 266 17 33 25 14 9 10 16 26 32 36 39 41 42 43 43 46 51 58 64 68 72 75 77 78 77 74 69 64 63 63 64 66 68 72 76 81 86 91 95 99 103 105 104 105 107 109 112 121 130 134 135
229 230 231 231 228 224 221 221 222 225 233 244 253 258 261 268 277 272 253 241 242 245 244 243 243 241 238 235 236 241 241 228 223 243 276 294 348 22 22 16 12 13 22 34 39 42 43 43 42 43 45 49 56 64 70 74 76 78 80 80 78 73 68 64 64 66 68 69 70 72 75 78 81 85 88 92 96 97 97 98 101 103 105 112 120 125 125
236 239 238 234 232 233 234 233 232 233 234 239 247 252 253 257 265 267 254 242 240 244 248 249 251 248 243 237 235 237 241 234 228 232 244 278 4 20 25 21 16 17 29 44 50 49 47 44 41 42 46 53 63 70 74 77 80 81 82 83 82 80 77 75 71 69 70 72 74 76 77 78 81 84 88 92 94 96 98 99 99 100 104 109 113 117 117
236 239 240 239 240 242 243 238 232 226 222 222 231 243 247 248 254 260 257 247 240 240 242 246 251 250 241 232 227 223 217 215 222 227 225 223 24 34 35 28 22 24 36 50 54 54 52 49 46 49 58 66 73 77 79 80 82 82 82 82 82 82 80 77 73 71 71 73 76 78 79 80 82 85 88 90 92 94 97 99 99 100 104 107 109 112 114
233 234 238 241 243 243 238 226 214 210 215 222 230 238 243 244 247 253 255 248 240 236 234 236 242 245 238 230 228 225 218 209 208 216 219 215 186 107 94 54 34 36 48 58 59 59 61 63 65 72 79 81 81 82 82 83 84 84 83 82 81 80 76 72 70 71 73 75 77 78 77 77 80 83 85 86 88 90 93 96 99 102 105 107 110 116 124
243 240 240 239 235 229 220 208 204 215 228 233 235 240 243 242 241 244 246 242 236 233 232 230 232 237 237 232 228 227 225 224 225 221 213 202 181 152 142 122 59 53 65 76 74 69 69 74 82 89 92 89 86 85 86 87 88 88 86 84 82 80 78 77 78 78 76 76 78 80 81 82 83 84 86 87 88 89 89 89 92 99 107 113 115 118 124
247 239 233 229 226 223 218 212 217 232 239 240 240 241 239 231 226 233 239 237 231 230 231 232 232 233 234 232 229 226 225 227 233 236 224 203 187 171 159 156 138 95 85 92 98 93 87 88 95 99 99 95 92 92 93 94 93 91 89 87 84 82 80 82 83 83 81 79 79 79 81 83 84 85 88 90 91 91 91 91 90 92 97 105 111 115 116
239 235 237 240 240 238 235 235 241 248 250 249 247 243 235 225 223 232 238 236 229 226 227 229 231 232 232 230 229 227 224 223 228 233 225 206 192 181 168 163 163 150 122 112 115 117 113 108 107 110 109 104 99 99 101 101 100 98 95 91 88 85 83 83 84 84 85 85 85 85 86 89 90 90 91 92 92 93 95 95 94 91 89 89 95 102 107
249 249 252 254 254 254 253 253 254 254 252 249 247 242 234 228 227 231 234 233 230 227 226 227 231 235 234 230 228 227 224 221 224 227 222 209 199 191 178 171 175 176 169 153 140 135 134 130 122 121 121 117 110 107 108 108 107 106 103 99 95 91 88 86 85 84 85 87 88 89 91 94 96 97 97 96 94 93 94 94 93 92 90 90 91 93 94